Weather History for Kerrville, TX

Change the Weather History Date:

Saturday, November 17, 2012

  Actual Average (KHDO) Record (KHDO)
Temperature  
Mean Temperature 50 °F -  
Max Temperature 68 °F 69 °F 95 °F (2013)
Min Temperature 33 °F 48 °F 30 °F (2008)
Degree Days  
Heating Degree Days 14    
Moisture  
Dew Point 33 °F    
Average Humidity 60    
Maximum Humidity 93    
Minimum Humidity 26    
Precipitation  
Precipitation 0.00 in - - ()
Sea Level Pressure  
Sea Level Pressure 30.31 in    
Wind  
Wind Speed 2 mph (SSE)    
Max Wind Speed 8 mph    
Max Gust Speed -    
Visibility 10 miles    
Events      
Averages and records for this station are not official NWS values.
T = Trace of Precipitation, MM = Missing Value Source: NWS Daily Summary

Daily Weather History Graph

Daily Weather History Graph

Search for Another Location

Airport:

Trip Planner

Search our weather history database for the weather conditions in past years. The results will help you decide how hot, cold, wet, or windy it might be!

Date:

Astronomy

Nov. 17, 2012 Rise Set
Actual Time 7:03 AM CST 5:39 PM CST
Civil Twilight 6:38 AM CST 6:04 PM CST
Nautical Twilight 6:09 AM CST 6:33 PM CST
Astronomical Twilight 5:40 AM CST 7:02 PM CST
Moon 10:49 AM CST (11/17) 9:49 PM CST (11/17)
Length of Visible Light 11h 26m
Length of Day
10h 35m
Waxing Crescent, 20% of the Moon is Illuminated
Nov 17
Waxing Crescent
Nov 20
First Quarter
Nov 28
Full
Dec 6
Last Quarter
Dec 13
New

Hourly Weather History & Observations

Time (CST) Temp. Windchill Dew Point Humidity Pressure Visibility Wind Dir Wind Speed Gust Speed Precip Events Conditions
12:15 AM 41.0 °F - 33.8 °F 76% 30.34 in 10.0 mi Calm Calm - N/A   Clear
12:35 AM 41.0 °F - 35.6 °F 81% 30.34 in 10.0 mi Calm Calm - N/A   Clear
12:55 AM 41.0 °F - 35.6 °F 81% 30.34 in 10.0 mi Calm Calm - N/A   Clear
1:15 AM 41.0 °F - 35.6 °F 81% 30.34 in 10.0 mi Calm Calm - N/A   Clear
1:35 AM 39.2 °F 37.0 °F 35.6 °F 87% 30.34 in 10.0 mi North 3.5 mph - N/A   Clear
1:55 AM 37.4 °F - 33.8 °F 87% 30.34 in 10.0 mi Calm Calm - N/A   Clear
2:15 AM 37.4 °F - 33.8 °F 87% 30.34 in 10.0 mi Calm Calm - N/A   Clear
2:35 AM 37.4 °F - 32.0 °F 81% 30.34 in 10.0 mi Calm Calm - N/A   Clear
2:55 AM 37.4 °F - 32.0 °F 81% 30.33 in 10.0 mi Calm Calm - N/A   Clear
3:15 AM 37.4 °F - 33.8 °F 87% 30.33 in 10.0 mi Calm Calm - N/A   Clear
3:35 AM 37.4 °F - 32.0 °F 81% 30.32 in 10.0 mi Calm Calm - N/A   Clear
3:55 AM 35.6 °F - 32.0 °F 87% 30.32 in 10.0 mi Calm Calm - N/A   Clear
4:15 AM 37.4 °F - 33.8 °F 87% 30.32 in 10.0 mi Calm Calm - N/A   Clear
4:35 AM 37.4 °F - 33.8 °F 87% 30.32 in 10.0 mi Calm Calm - N/A   Clear
4:55 AM 37.4 °F - 33.8 °F 87% 30.32 in 10.0 mi Calm Calm - N/A   Clear
5:15 AM 37.4 °F - 33.8 °F 87% 30.33 in 10.0 mi Calm Calm - N/A   Clear
5:35 AM 35.6 °F - 32.0 °F 87% 30.33 in 10.0 mi Calm Calm - N/A   Clear
5:55 AM 35.6 °F - 32.0 °F 87% 30.32 in 10.0 mi Calm Calm - N/A   Clear
6:15 AM 33.8 °F 30.8 °F 32.0 °F 93% 30.32 in 10.0 mi North 3.5 mph - N/A   Clear
6:35 AM 35.6 °F - 32.0 °F 87% 30.33 in 10.0 mi Calm Calm - N/A   Clear
6:55 AM 35.6 °F - 32.0 °F 87% 30.34 in 10.0 mi Calm Calm - N/A   Clear
7:15 AM 35.6 °F - 32.0 °F 87% 30.34 in 10.0 mi Calm Calm - N/A   Clear
7:35 AM 35.6 °F - 32.0 °F 87% 30.35 in 10.0 mi Calm Calm - N/A   Clear
7:55 AM 35.6 °F - 33.8 °F 93% 30.35 in 10.0 mi Calm Calm - N/A   Clear
8:15 AM 37.4 °F - 33.8 °F 87% 30.36 in 10.0 mi Calm Calm - N/A   Clear
8:35 AM 41.0 °F - 35.6 °F 81% 30.37 in 10.0 mi Calm Calm - N/A   Clear
8:55 AM 42.8 °F - 35.6 °F 76% 30.37 in 10.0 mi Calm Calm - N/A   Scattered Clouds
9:15 AM 48.2 °F - 35.6 °F 62% 30.37 in 10.0 mi Calm Calm - N/A   Mostly Cloudy
9:35 AM 50.0 °F - 33.8 °F 54% 30.37 in 10.0 mi SE 4.6 mph - N/A   Mostly Cloudy
9:55 AM 53.6 °F - 32.0 °F 44% 30.37 in 10.0 mi ESE 6.9 mph - N/A   Overcast
10:15 AM 55.4 °F - 32.0 °F 41% 30.37 in 10.0 mi SSE 5.8 mph - N/A   Overcast
10:35 AM 55.4 °F - 33.8 °F 44% 30.38 in 10.0 mi SE 5.8 mph - N/A   Overcast
11:55 AM 60.8 °F - 33.8 °F 36% 30.35 in 10.0 mi South 4.6 mph - N/A   Scattered Clouds
12:15 PM 60.8 °F - 33.8 °F 36% 30.34 in 10.0 mi SE 3.5 mph - N/A   Clear
12:35 PM 62.6 °F - 33.8 °F 34% 30.32 in 10.0 mi SSE 4.6 mph - N/A   Scattered Clouds
12:55 PM 62.6 °F - 33.8 °F 34% 30.31 in 10.0 mi South 4.6 mph - N/A   Scattered Clouds
1:15 PM 62.6 °F - 32.0 °F 32% 30.31 in 10.0 mi SE 6.9 mph - N/A   Scattered Clouds
1:35 PM 64.4 °F - 33.8 °F 32% 30.29 in 10.0 mi ESE 4.6 mph - N/A   Scattered Clouds
1:55 PM 64.4 °F - 33.8 °F 32% 30.29 in 10.0 mi SW 4.6 mph - N/A   Scattered Clouds
2:15 PM 68.0 °F - 33.8 °F 28% 30.28 in 10.0 mi South 6.9 mph - N/A   Clear
2:35 PM 68.0 °F - 32.0 °F 26% 30.27 in 10.0 mi South 5.8 mph - N/A   Clear
2:55 PM 68.0 °F - 33.8 °F 28% 30.27 in 10.0 mi South 6.9 mph - N/A   Clear
3:15 PM 68.0 °F - 33.8 °F 28% 30.27 in 10.0 mi South 6.9 mph - N/A   Clear
3:55 PM 66.2 °F - 33.8 °F 30% 30.27 in 10.0 mi South 8.1 mph - N/A   Clear
4:15 PM 64.4 °F - 33.8 °F 32% 30.27 in 10.0 mi South 8.1 mph - N/A   Clear
4:35 PM 64.4 °F - 33.8 °F 32% 30.27 in 10.0 mi SSE 6.9 mph - N/A   Clear
4:55 PM 64.4 °F - 32.0 °F 30% 30.27 in 10.0 mi South 8.1 mph - N/A   Clear
5:15 PM 62.6 °F - 33.8 °F 34% 30.27 in 10.0 mi SSE 6.9 mph - N/A   Clear
5:35 PM 60.8 °F - 33.8 °F 36% 30.27 in 10.0 mi SSE 4.6 mph - N/A   Clear
5:55 PM 59.0 °F - 33.8 °F 39% 30.27 in 10.0 mi SSE 4.6 mph - N/A   Clear
6:15 PM 59.0 °F - 32.0 °F 36% 30.28 in 10.0 mi ESE 5.8 mph - N/A   Clear
6:35 PM 57.2 °F - 32.0 °F 38% 30.28 in 10.0 mi ESE 5.8 mph - N/A   Clear
6:55 PM 55.4 °F - 32.0 °F 41% 30.28 in 10.0 mi ESE 4.6 mph - N/A   Scattered Clouds
7:15 PM 55.4 °F - 32.0 °F 41% 30.28 in 10.0 mi ESE 5.8 mph - N/A   Scattered Clouds
7:35 PM 53.6 °F - 32.0 °F 44% 30.29 in 10.0 mi ESE 3.5 mph - N/A   Clear
7:55 PM 53.6 °F - 32.0 °F 44% 30.29 in 10.0 mi Calm Calm - N/A   Clear
8:15 PM 53.6 °F - 32.0 °F 44% 30.29 in 10.0 mi ESE 3.5 mph - N/A   Clear
8:35 PM 50.0 °F - 33.8 °F 54% 30.29 in 10.0 mi ESE 3.5 mph - N/A   Clear
8:55 PM 50.0 °F - 33.8 °F 54% 30.29 in 10.0 mi Calm Calm - N/A   Clear
9:15 PM 50.0 °F - 35.6 °F 58% 30.29 in 10.0 mi Calm Calm - N/A   Clear
9:35 PM 48.2 °F - 35.6 °F 62% 30.30 in 10.0 mi Calm Calm - N/A   Clear
9:55 PM 50.0 °F - 35.6 °F 58% 30.29 in 10.0 mi Calm Calm - N/A   Clear
10:15 PM 46.4 °F - 33.8 °F 62% 30.30 in 10.0 mi Calm Calm - N/A   Clear
10:35 PM 44.6 °F - 33.8 °F 66% 30.30 in 10.0 mi Calm Calm - N/A   Clear
10:55 PM 44.6 °F - 33.8 °F 66% 30.29 in 10.0 mi Calm Calm - N/A   Clear
11:15 PM 42.8 °F - 33.8 °F 70% 30.29 in 10.0 mi Calm Calm - N/A   Clear
11:35 PM 42.8 °F - 33.8 °F 70% 30.29 in 10.0 mi Calm Calm - N/A   Clear
11:55 PM 42.8 °F - 33.8 °F 70% 30.28 in 10.0 mi Calm Calm - N/A   Clear